Location: 22
(39.7117°N, 89.5929°W)
Time: 10:18:42
(UTC-05:00)

Transit 2A - Pass Details

Date: 07 August 2024
Orbit: 590 x 961 km, 66.7° (Epoch: 13 September)

Event Time Altitude Azimuth Distance (km) Brightness Sun altitude
Rises 03:40:07 0° 172° (S) 3,155 - -23.3°
Reaches altitude 10° 03:42:45 10° 159° (SSE) 2,302 - -23.0°
Exits shadow 03:43:50 15° 150° (SSE) 2,011 8.0 -22.8°
Maximum altitude 03:47:01 25° 106° (ESE) 1,602 7.9 -22.4°
Drops below altitude 10° 03:51:37 10° 53° (NE) 2,516 9.8 -21.8°
Sets 03:54:37 0° 41° (NE) 3,516 11.0 -21.4°
